Location: Prescott
(34.5400°N, 112.4680°W)
Time: 02:40:55
(UTC-07:00)

OTV 5 (USA 277) - Pass Details

Date: 22 February 2019
Orbit: 315 x 320 km, 54.5° (Epoch: 14 March)

Event Time Altitude Azimuth Distance (km) Brightness Sun altitude
Rises 18:35:42 0° 185° (S) 2,042 ? -4.1°
Reaches altitude 10° 18:38:23 10° 154° (SSE) 1,217 ? -4.6°
Maximum altitude 18:39:43 13° 124° (SE) 1,071 ? -4.9°
Drops below altitude 10° 18:41:04 10° 95° (E) 1,222 ? -5.2°
Enters shadow 18:41:55 - 81° (E) 1,440 ? -5.4°
